Location: Unspecified
(0.0000°N, 0.0000°E)
Time: 05:09:16
(UTC+00:00)

Explorer 11/Cluster Stage 4 - Visible Passes

Search period start: 09 June 2026 00:00
Search period end: 19 June 2026 00:00
Orbit: 463 x 1173 km, 28.8° (Epoch: 7 June)

Date Brightness Start Highest point End Pass type
(mag) Time Alt. Az. Time Alt. Az. Time Alt. Az.
9 Jun 7.1 18:17:52 10° NW 18:23:48 72° NNE 18:30:58 10° ESE visible
9 Jun 8.1 20:05:59 10° W 20:12:05 35° SSW 20:12:36 35° SSW visible
10 Jun 7.6 05:15:24 10° SW 05:20:33 32° SSE 05:24:49 10° E visible
10 Jun 8.2 19:41:16 10° W 19:47:04 33° SSW 19:49:15 28° S visible
11 Jun 7.6 04:51:39 16° SSW 04:55:43 35° SSE 05:00:19 10° E visible
11 Jun 8.2 19:16:36 10° W 19:22:04 32° SSW 19:25:54 20° SSE visible
12 Jun 7.6 04:28:19 26° SSW 04:30:52 37° SSE 04:35:47 10° E visible
12 Jun 8.2 18:51:58 10° W 18:57:06 30° SSW 19:02:32 12° SSE visible
13 Jun 7.6 04:04:58 37° S 04:05:57 40° SSE 04:11:12 10° E visible
13 Jun 8.2 18:27:22 10° W 18:32:11 28° SSW 18:37:48 10° SSE visible
14 Jun 7.7 03:41:36 41° SE 03:41:36 41° SE 03:46:34 10° E visible
14 Jun 7.1 05:22:49 10° WSW 05:28:55 49° NNW 05:33:50 10° NE visible
15 Jun 8.2 03:18:13 33° ESE 03:18:13 33° ESE 03:21:54 10° E visible
15 Jun 7.2 04:59:23 18° W 05:04:00 50° NNW 05:09:13 10° NE visible
16 Jun 8.8 02:54:46 23° E 02:54:46 23° E 02:57:10 10° E visible
16 Jun 7.3 04:35:58 29° W 04:39:02 50° NNW 04:44:33 10° NE visible
17 Jun 9.4 02:31:18 15° E 02:31:18 15° E 02:32:22 10° ENE visible
17 Jun 7.4 04:12:29 43° WNW 04:14:01 51° NNW 04:19:50 10° NE visible
18 Jun 7.4 03:48:57 51° NNW 03:48:58 51° NNW 03:55:05 10° NE visible
18 Jun 9.0 05:34:12 10° NW 05:36:54 13° NNW 05:39:26 10° N visible
